RYR720F EIDW-EGGP

Flight info

Callsign RYR720F
Flight time 0h 27m
Altitude 18000
Route BOFUM1E BOFUM BOFUM2L
Aircraft B738/M-SDE2E3FGHIRWXY/LB1

Departure

Time 2026-05-03 22:08
Airport Dublin Airport (EIDW)

Arrival

Time 2026-05-03 22:36
Airport Liverpool John Lennon Airport (EGGP)
Time Latitude Longitude Altitude Speed Heading
2026-05-03 21:47 53.43011 -6.25009 210 ft 0 kts
2026-05-03 21:58 53.43001 -6.25011 210 ft 4 kts
2026-05-03 21:58 53.42977 -6.25014 214 ft 4 kts 357°
2026-05-03 21:58 53.42956 -6.25001 221 ft 4 kts 297°
2026-05-03 21:59 53.42951 -6.24966 215 ft 0 kts 275°
2026-05-03 22:01 53.42953 -6.24999 220 ft 0 kts 275°
2026-05-03 22:01 53.42957 -6.25065 214 ft 15 kts 276°
2026-05-03 22:02 53.42956 -6.25261 215 ft 17 kts 251°
2026-05-03 22:02 53.42904 -6.25389 213 ft 12 kts 224°
2026-05-03 22:02 53.42891 -6.25411 212 ft 0 kts 226°
2026-05-03 22:03 53.42854 -6.25474 211 ft 16 kts 225°
2026-05-03 22:03 53.42764 -6.25626 212 ft 19 kts 225°
2026-05-03 22:03 53.42658 -6.25740 210 ft 19 kts 172°
2026-05-03 22:03 53.42579 -6.25687 214 ft 11 kts 163°
2026-05-03 22:04 53.42490 -6.25773 210 ft 18 kts 224°
2026-05-03 22:04 53.42396 -6.25931 211 ft 22 kts 226°
2026-05-03 22:04 53.42295 -6.26117 212 ft 21 kts 236°
2026-05-03 22:04 53.42270 -6.26359 210 ft 24 kts 275°
2026-05-03 22:05 53.42287 -6.26670 210 ft 27 kts 275°
2026-05-03 22:05 53.42303 -6.26970 210 ft 25 kts 275°
2026-05-03 22:05 53.42318 -6.27249 210 ft 22 kts 275°
2026-05-03 22:05 53.42333 -6.27511 210 ft 26 kts 275°
2026-05-03 22:06 53.42353 -6.27868 217 ft 31 kts 274°
2026-05-03 22:06 53.42369 -6.28167 210 ft 14 kts 275°
2026-05-03 22:06 53.42348 -6.28314 215 ft 14 kts 210°
2026-05-03 22:06 53.42311 -6.28323 210 ft 0 kts 169°
2026-05-03 22:07 53.42289 -6.28309 210 ft 11 kts 152°
2026-05-03 22:07 53.42222 -6.28189 214 ft 14 kts 127°
2026-05-03 22:08 53.42189 -6.28037 214 ft 15 kts 96°
2026-05-03 22:08 53.42159 -6.27479 212 ft 91 kts 95°
2026-05-03 22:08 53.42078 -6.25982 223 ft 164 kts 93°
2026-05-03 22:08 53.41951 -6.23950 909 ft 183 kts 93°
2026-05-03 22:09 53.41815 -6.21724 1789 ft 194 kts 92°
2026-05-03 22:09 53.41697 -6.19412 2438 ft 213 kts 92°
2026-05-03 22:09 53.41568 -6.16793 2693 ft 240 kts 92°
2026-05-03 22:10 53.41254 -6.11010 4359 ft 252 kts 93°
2026-05-03 22:10 53.41086 -6.08052 5258 ft 258 kts 93°
2026-05-03 22:10 53.40920 -6.05037 6148 ft 262 kts 91°
2026-05-03 22:10 53.41033 -6.03028 6678 ft 263 kts 72°
2026-05-03 22:11 53.41684 -6.00153 7548 ft 265 kts 67°
2026-05-03 22:11 53.42388 -5.97257 8346 ft 270 kts 67°
2026-05-03 22:11 53.43100 -5.94317 8819 ft 271 kts 67°
2026-05-03 22:11 53.43809 -5.91367 9000 ft 279 kts 68°
2026-05-03 22:12 53.44540 -5.88295 8996 ft 284 kts 68°
2026-05-03 22:12 53.45265 -5.85236 8989 ft 280 kts 68°
2026-05-03 22:12 53.45977 -5.82225 8990 ft 275 kts 68°
2026-05-03 22:12 53.46691 -5.79248 9114 ft 276 kts 67°
2026-05-03 22:13 53.47426 -5.76212 9746 ft 283 kts 68°
2026-05-03 22:13 53.48168 -5.73143 10528 ft 289 kts 68°
2026-05-03 22:13 53.48956 -5.69882 10750 ft 315 kts 68°
2026-05-03 22:13 53.49802 -5.66372 11139 ft 331 kts 68°
2026-05-03 22:14 53.50673 -5.62746 11807 ft 340 kts 68°
2026-05-03 22:14 53.51585 -5.58951 12033 ft 361 kts 68°
2026-05-03 22:14 53.52542 -5.54953 12465 ft 374 kts 68°
2026-05-03 22:14 53.53471 -5.50820 13106 ft 381 kts 74°
2026-05-03 22:15 53.53736 -5.46380 13813 ft 386 kts 91°
2026-05-03 22:15 53.53595 -5.41879 14606 ft 385 kts 92°
2026-05-03 22:15 53.53450 -5.37396 15431 ft 384 kts 92°
2026-05-03 22:15 53.53302 -5.32852 15640 ft 398 kts 93°
2026-05-03 22:16 53.53124 -5.28161 15576 ft 403 kts 93°
2026-05-03 22:16 53.52932 -5.23452 15529 ft 404 kts 94°
2026-05-03 22:16 53.52737 -5.18757 15533 ft 404 kts 94°
2026-05-03 22:16 53.52540 -5.14047 15526 ft 403 kts 94°
2026-05-03 22:17 53.52344 -5.09356 15761 ft 400 kts 94°
2026-05-03 22:17 53.52152 -5.04735 16175 ft 403 kts 94°
2026-05-03 22:17 53.51954 -5.00014 16594 ft 407 kts 94°
2026-05-03 22:17 53.51755 -4.95275 16602 ft 401 kts 94°
2026-05-03 22:18 53.51561 -4.90696 16545 ft 384 kts 94°
2026-05-03 22:18 53.51374 -4.86320 16428 ft 366 kts 94°
2026-05-03 22:18 53.51195 -4.82152 16134 ft 349 kts 94°
2026-05-03 22:18 53.51022 -4.78163 15861 ft 334 kts 94°
2026-05-03 22:19 53.50855 -4.74337 15594 ft 321 kts 94°
2026-05-03 22:19 53.50693 -4.70674 15331 ft 309 kts 94°
2026-05-03 22:19 53.50536 -4.67120 15083 ft 300 kts 94°
2026-05-03 22:19 53.50381 -4.63635 15030 ft 305 kts 94°
2026-05-03 22:20 53.50221 -4.60085 14984 ft 304 kts 94°
2026-05-03 22:20 53.50062 -4.56568 14981 ft 302 kts 94°
2026-05-03 22:20 53.49902 -4.53041 14987 ft 304 kts 94°
2026-05-03 22:20 53.49740 -4.49498 14981 ft 304 kts 94°
2026-05-03 22:21 53.49577 -4.45962 14975 ft 304 kts 94°
2026-05-03 22:21 53.49413 -4.42433 14975 ft 303 kts 94°
2026-05-03 22:21 53.49248 -4.38899 14975 ft 303 kts 95°
2026-05-03 22:21 53.49082 -4.35370 14976 ft 303 kts 95°
2026-05-03 22:22 53.48915 -4.31836 14832 ft 306 kts 95°
2026-05-03 22:22 53.48745 -4.28277 14590 ft 305 kts 95°
2026-05-03 22:22 53.48577 -4.24748 14332 ft 301 kts 95°
2026-05-03 22:22 53.48409 -4.21267 14086 ft 298 kts 95°
2026-05-03 22:23 53.48241 -4.17798 13851 ft 298 kts 95°
2026-05-03 22:23 53.48072 -4.14340 13595 ft 297 kts 95°
2026-05-03 22:23 53.47906 -4.10959 13379 ft 289 kts 95°
2026-05-03 22:23 53.47743 -4.07655 13104 ft 279 kts 95°
2026-05-03 22:24 53.47584 -4.04454 12814 ft 272 kts 95°
2026-05-03 22:24 53.47427 -4.01309 12544 ft 269 kts 95°
2026-05-03 22:24 53.47270 -3.98173 12280 ft 272 kts 95°
2026-05-03 22:24 53.47106 -3.94926 12061 ft 286 kts 95°
2026-05-03 22:25 53.46936 -3.91569 11848 ft 292 kts 95°
2026-05-03 22:25 53.46760 -3.88122 11449 ft 295 kts 95°
2026-05-03 22:25 53.46584 -3.84684 11081 ft 296 kts 95°
2026-05-03 22:25 53.46407 -3.81253 10777 ft 294 kts 95°
2026-05-03 22:26 53.46230 -3.77842 10461 ft 293 kts 95°
2026-05-03 22:26 53.46053 -3.74445 10147 ft 292 kts 95°
2026-05-03 22:26 53.45877 -3.71089 10025 ft 284 kts 95°
2026-05-03 22:26 53.45703 -3.67797 9719 ft 283 kts 95°
2026-05-03 22:27 53.45529 -3.64518 9418 ft 281 kts 95°
2026-05-03 22:27 53.45356 -3.61258 9120 ft 279 kts 95°
2026-05-03 22:27 53.45182 -3.58019 8829 ft 278 kts 95°
2026-05-03 22:27 53.45009 -3.54802 8544 ft 276 kts 95°
2026-05-03 22:28 53.44838 -3.51631 8289 ft 269 kts 95°
2026-05-03 22:28 53.44670 -3.48537 7897 ft 265 kts 95°
2026-05-03 22:28 53.44502 -3.45470 7471 ft 263 kts 95°
2026-05-03 22:28 53.44336 -3.42431 7064 ft 261 kts 94°
2026-05-03 22:29 53.44170 -3.39409 6658 ft 258 kts 95°
2026-05-03 22:29 53.44008 -3.36482 6396 ft 250 kts 95°
2026-05-03 22:29 53.43777 -3.33642 6108 ft 243 kts 108°
2026-05-03 22:29 53.42997 -3.31209 5899 ft 234 kts 123°
2026-05-03 22:30 53.42072 -3.28988 5585 ft 230 kts 124°
2026-05-03 22:30 53.41157 -3.26854 5357 ft 223 kts 124°
2026-05-03 22:30 53.40254 -3.24760 5020 ft 220 kts 124°
2026-05-03 22:30 53.39368 -3.22716 4856 ft 209 kts 124°
2026-05-03 22:31 53.38542 -3.20828 4711 ft 195 kts 124°
2026-05-03 22:31 53.37765 -3.19051 4513 ft 182 kts 124°
2026-05-03 22:31 53.37025 -3.17368 4227 ft 178 kts 124°
2026-05-03 22:31 53.36293 -3.15708 3851 ft 178 kts 124°
2026-05-03 22:32 53.35565 -3.14064 3571 ft 173 kts 124°
2026-05-03 22:32 53.34849 -3.12452 3398 ft 173 kts 124°
2026-05-03 22:32 53.34129 -3.10835 3275 ft 174 kts 124°
2026-05-03 22:32 53.33370 -3.09127 2836 ft 185 kts 123°
2026-05-03 22:33 53.32849 -3.07210 2526 ft 178 kts 92°
2026-05-03 22:33 53.32841 -3.05218 2331 ft 176 kts 91°
2026-05-03 22:33 53.32798 -3.03214 2062 ft 168 kts 90°
2026-05-03 22:33 53.32785 -3.01303 1779 ft 159 kts 88°
2026-05-03 22:34 53.32804 -2.99520 1556 ft 153 kts 86°
2026-05-03 22:34 53.32820 -2.97720 1380 ft 154 kts 87°
2026-05-03 22:34 53.32865 -2.95967 1246 ft 153 kts 84°
2026-05-03 22:34 53.32943 -2.94224 1038 ft 149 kts 84°
2026-05-03 22:35 53.33021 -2.92504 810 ft 147 kts 83°
2026-05-03 22:35 53.33097 -2.90813 611 ft 145 kts 83°
2026-05-03 22:35 53.33174 -2.89124 409 ft 146 kts 83°
2026-05-03 22:35 53.33246 -2.87440 221 ft 146 kts 83°
2026-05-03 22:36 53.33325 -2.85775 92 ft 136 kts 84°
2026-05-03 22:36 53.33373 -2.84784 89 ft 31 kts 82°
2026-05-03 22:36 53.33408 -2.84568 88 ft 9 kts 65°
2026-05-03 22:36 53.33434 -2.84477 91 ft 9 kts 60°
2026-05-03 22:37 53.33466 -2.84395 90 ft 8 kts 58°
2026-05-03 22:37 53.33496 -2.84313 91 ft 8 kts 58°
2026-05-03 22:37 53.33501 -2.84297 90 ft 0 kts 60°
2026-05-03 22:38 53.33502 -2.84296 90 ft 2 kts 60°